[[{"header":{"parameterUnit":"m.s-1","parameterCategory":1,"la1":30.2992,"la2":30.254,"lo1":-89.0895,"lo2":-89.0443,"dy":0.0025,"dx":0.0025,"nx":19,"ny":19,"refTime":"2026-05-13T21:00:00:Z","depth":0,"parameterNumber":2,"parameterNumberName":"U-component_of_WINDS"},"data":[0,0,0,-0.5964,-0.5963,-0.5877,-0.5877,-0.579,-0.5789,0,0,0,0,0,0,0,0,0,0,0,-0.6004,-0.6004,-0.5964,-0.5963,-0.5878,-0.5877,-0.579,-0.5789,0,0,0,0,0,0,0,0,0,0,0,-0.6004,-0.6004,-0.6004,-0.5962,-0.5878,-0.5877,-0.579,-0.5846,0,0,0,0,0,0,0,0,0,0,-0.5925,-0.5977,-0.6004,-0.6004,-0.5962,-0.5878,-0.5877,-0.5849,-0.5843,-0.5838,0,-0.584,0,-0.5813,-0.5785,-0.5785,0,0,0,-0.5951,-0.5982,-0.5946,-0.6004,-0.5961,-0.5878,-0.5913,-0.5845,-0.5839,-0.5831,-0.5838,-0.5834,-0.5812,-0.5785,-0.5784,-0.5801,-0.5802,0,0,-0.5956,-0.5997,-0.595,-0.5942,-0.5958,-0.5916,-0.591,-0.5841,-0.5851,-0.5838,-0.5832,-0.5811,-0.5784,-0.5784,-0.58,-0.5801,0,0,0,-0.5977,-0.6,-0.5965,-0.5947,-0.593,-0.5913,-0.5907,-0.5854,-0.5839,-0.5831,-0.5809,-0.5784,-0.5783,-0.58,-0.5801,-0.5873,0,0,0,-0.5979,-0.6013,-0.5968,-0.5992,-0.5931,-0.5891,-0.5923,-0.5844,-0.5835,-0.581,-0.5784,-0.5782,-0.5799,-0.58,-0.5869,-0.59,0,0,0,-0.6005,-0.6015,-0.6008,-0.5994,-0.5959,-0.5891,-0.5872,-0.5841,-0.5823,-0.5785,-0.5782,-0.5799,-0.58,-0.5866,-0.5895,-0.5918,0,0,0,-0.6043,-0.6072,-0.601,-0.6034,-0.596,-0.5936,-0.5872,-0.5851,-0.5828,-0.5783,-0.5799,-0.5801,-0.5865,-0.5892,-0.5915,-0.5946,-0.5963,0,0,-0.6102,-0.608,-0.6091,-0.6033,-0.6031,-0.5946,-0.5953,-0.5892,-0.585,-0.5819,-0.5819,-0.587,-0.5895,-0.5917,-0.6038,-0.6051,0,0,0,-0.6123,-0.6132,-0.6122,-0.6103,-0.6057,-0.6021,-0.5954,-0.5931,-0.5904,-0.5843,-0.5882,-0.5896,-0.5907,-0.5921,-0.5932,-0.594,-0.5808,-0.5808,-0.5808,-0.6266,-0.6212,-0.6227,-0.6163,-0.6144,-0.6075,-0.6055,-0.6012,-0.5961,-0.5972,-0.5963,-0.6043,-0.606,-0.6068,-0.6077,-0.5974,-0.5974,-0.5974,-0.5974,-0.6349,-0.6354,-0.6287,-0.6278,-0.622,-0.621,-0.6145,-0.611,-0.6092,-0.6045,-0.6052,-0.6008,-0.6085,-0.609,-0.5979,-0.5978,-0.5978,-0.5977,-0.5977,-0.6439,-0.6431,-0.6404,-0.637,-0.6349,-0.6282,-0.6269,-0.6216,-0.6165,-0.6173,-0.6159,-0.6157,-0.6151,-0.6169,-0.617,-0.617,-0.617,-0.617,-0.617,-0.6543,-0.651,-0.6506,-0.6461,-0.6441,-0.6409,-0.634,-0.6318,-0.6281,-0.6243,-0.6243,-0.6193,-0.6102,-0.6082,-0.6175,-0.6174,-0.6173,-0.6173,-0.6173,-0.6651,-0.6618,-0.6613,-0.6594,-0.6536,-0.652,-0.6452,-0.6413,-0.6388,-0.6383,-0.633,-0.6271,-0.6245,-0.6236,-0.6219,-0.6341,-0.6341,-0.6341,-0.6341,-0.6728,-0.671,-0.6693,-0.6666,-0.6632,-0.6571,-0.6566,-0.6512,-0.6451,-0.6431,-0.6405,-0.6377,-0.637,-0.6348,-0.6336,-0.6319,-0.6464,-0.6465,-0.6465,-0.6792,-0.6768,-0.6776,-0.6717,-0.6668,-0.6627,-0.6621,-0.6591,-0.6514,-0.6469,-0.6415,-0.641,-0.6364,-0.6352,-0.6308,-0.629,-0.6258,0,0]},{"header":{"parameterUnit":"m.s-1","parameterCategory":1,"la1":30.2992,"la2":30.254,"lo1":-89.0895,"lo2":-89.0443,"dy":0.0025,"dx":0.0025,"nx":19,"ny":19,"refTime":"2026-05-13T21:00:00:Z","depth":0,"parameterNumber":3,"parameterNumberName":"V-component_of_WINDS"},"data":[0,0,0,-3.3259,-3.3264,-3.3489,-3.349,-3.3763,-3.3765,0,0,0,0,0,0,0,0,0,0,0,-3.3184,-3.3186,-3.3259,-3.3264,-3.3489,-3.349,-3.3762,-3.3765,0,0,0,0,0,0,0,0,0,0,0,-3.3183,-3.3185,-3.3187,-3.3265,-3.3489,-3.349,-3.3762,-3.3597,0,0,0,0,0,0,0,0,0,0,-3.3381,-3.3304,-3.3185,-3.3187,-3.3266,-3.3488,-3.349,-3.359,-3.3608,-3.3655,0,-3.3695,0,-3.3734,-3.3782,-3.3783,0,0,0,-3.3271,-3.3289,-3.3357,-3.3188,-3.3268,-3.3488,-3.3389,-3.36,-3.362,-3.3678,-3.3699,-3.3709,-3.3739,-3.3784,-3.3785,-3.4039,-3.404,0,0,-3.3258,-3.322,-3.3343,-3.337,-3.3335,-3.3382,-3.3396,-3.3612,-3.3632,-3.37,-3.3716,-3.3743,-3.3786,-3.3788,-3.4038,-3.4039,0,0,0,-3.3218,-3.3211,-3.3274,-3.3358,-3.34,-3.3388,-3.3405,-3.3622,-3.3646,-3.3719,-3.3746,-3.3787,-3.379,-3.4037,-3.4039,-3.4047,0,0,0,-3.3211,-3.3188,-3.3269,-3.3248,-3.3396,-3.3514,-3.3409,-3.3631,-3.3657,-3.3745,-3.3787,-3.3793,-3.4036,-3.4038,-3.4045,-3.4058,0,0,0,-3.3172,-3.3183,-3.3213,-3.3245,-3.334,-3.3511,-3.3548,-3.3638,-3.3673,-3.3784,-3.3794,-3.4036,-3.4038,-3.4043,-3.4055,-3.4115,0,0,0,-3.312,-3.3216,-3.3212,-3.3331,-3.3338,-3.3515,-3.3547,-3.368,-3.3775,-3.3789,-3.4036,-3.4038,-3.4042,-3.4053,-3.4113,-3.4161,-3.4176,0,0,-3.3221,-3.3227,-3.33,-3.3303,-3.3471,-3.3483,-3.3653,-3.3775,-3.382,-3.3963,-3.397,-3.4046,-3.4055,-3.4115,-3.4275,-3.4287,0,0,0,-3.3319,-3.3371,-3.3423,-3.3513,-3.361,-3.3694,-3.3795,-3.3841,-3.3965,-3.3886,-3.4084,-3.4091,-3.4127,-3.4152,-3.4163,-3.4197,-3.4048,-3.4047,-3.4047,-3.3407,-3.346,-3.3584,-3.3664,-3.375,-3.3854,-3.3929,-3.4009,-3.4036,-3.4081,-3.4125,-3.4216,-3.4243,-3.4251,-3.4287,-3.4153,-3.4153,-3.4153,-3.4153,-3.3561,-3.3643,-3.3678,-3.3811,-3.3866,-3.3978,-3.4081,-3.4097,-3.421,-3.4187,-3.4222,-3.4194,-3.4263,-3.4297,-3.4154,-3.4154,-3.4154,-3.4154,-3.4153,-3.3626,-3.3675,-3.3729,-3.3865,-3.3964,-3.4041,-3.4148,-3.4193,-3.4237,-3.4271,-3.4324,-3.4324,-3.4331,-3.4293,-3.4293,-3.4293,-3.4294,-3.4294,-3.4294,-3.3673,-3.3734,-3.3819,-3.393,-3.3994,-3.4085,-3.419,-3.4254,-3.4337,-3.4362,-3.4363,-3.4386,-3.4259,-3.4228,-3.4299,-3.4298,-3.4298,-3.4297,-3.4297,-3.3813,-3.3789,-3.392,-3.3984,-3.4119,-3.4215,-3.4271,-3.4398,-3.4458,-3.451,-3.4526,-3.4424,-3.4434,-3.4426,-3.44,-3.4512,-3.4512,-3.4512,-3.4513,-3.3869,-3.3879,-3.4024,-3.4124,-3.4227,-3.4292,-3.444,-3.4522,-3.4603,-3.4644,-3.4634,-3.4603,-3.4592,-3.4609,-3.4597,-3.4574,-3.4728,-3.4728,-3.4728,-3.3959,-3.3981,-3.4098,-3.4178,-3.4286,-3.4379,-3.4519,-3.4633,-3.472,-3.4738,-3.4677,-3.4668,-3.4618,-3.4599,-3.4617,-3.4598,-3.4556,0,0]}]]